�������l�o���
Date,Time,MP-1(��Sv/h),MP-2(��Sv/h),MP-3(��Sv/h),MP-4(��Sv/h),MP-5(��Sv/h),MP-6(��Sv/h),MP-7(��Sv/h),����,����(m/s),���J
2018/11/11,00:00,0.303,0.188,0.300,0.290,0.278,0.150,0.093,�k��,5.0,��
2018/11/11,00:10,0.305,0.187,0.301,0.287,0.277,0.149,0.092,�k��,4.9,��
2018/11/11,00:20,0.305,0.188,0.300,0.287,0.279,0.150,0.093,�k�k��,3.7,��
2018/11/11,00:30,0.305,0.187,0.300,0.288,0.278,0.150,0.093,�k�k��,2.9,��
2018/11/11,00:40,0.306,0.189,0.300,0.287,0.278,0.149,0.092,�k�k��,4.9,��
2018/11/11,00:50,0.305,0.188,0.299,0.287,0.278,0.150,0.093,�k�k��,4.6,��
2018/11/11,01:00,0.306,0.188,0.298,0.289,0.277,0.150,0.093,�k�k��,4.4,��
2018/11/11,01:10,0.305,0.186,0.300,0.287,0.277,0.150,0.092,�k,4.1,��
2018/11/11,01:20,0.304,0.187,0.300,0.287,0.278,0.151,0.092,�k,4.3,��
2018/11/11,01:30,0.304,0.187,0.299,0.287,0.278,0.150,0.093,�k,4.3,��
2018/11/11,01:40,0.306,0.187,0.300,0.287,0.279,0.151,0.092,�k,4.9,��
2018/11/11,01:50,0.304,0.188,0.299,0.287,0.277,0.150,0.092,�k,3.4,��
2018/11/11,02:00,0.305,0.188,0.300,0.288,0.276,0.151,0.093,�k�k��,3.8,��
2018/11/11,02:10,0.305,0.187,0.301,0.288,0.277,0.151,0.092,�k�k��,3.0,��
2018/11/11,02:20,0.305,0.187,0.301,0.287,0.277,0.150,0.093,�k�k��,1.1,��
2018/11/11,02:30,0.304,0.188,0.299,0.287,0.277,0.151,0.093,�k,1.5,��
2018/11/11,02:40,0.305,0.188,0.300,0.288,0.277,0.150,0.094,���쐼,0.8,��
2018/11/11,02:50,0.305,0.188,0.301,0.285,0.278,0.151,0.093,�k��,2.1,��
2018/11/11,03:00,0.304,0.188,0.300,0.288,0.277,0.150,0.093,���k��,2.0,��
2018/11/11,03:10,0.305,0.188,0.299,0.289,0.278,0.150,0.092,�k��,4.1,��
2018/11/11,03:20,0.306,0.188,0.302,0.288,0.276,0.150,0.091,�k��,5.2,��
2018/11/11,03:30,0.304,0.187,0.301,0.288,0.277,0.150,0.093,���k��,6.2,��
2018/11/11,03:40,0.305,0.187,0.299,0.288,0.277,0.150,0.093,���k��,6.4,��
2018/11/11,03:50,0.305,0.187,0.301,0.287,0.279,0.151,0.093,���k��,5.8,��
2018/11/11,04:00,0.304,0.188,0.300,0.288,0.277,0.151,0.092,��,5.9,��
2018/11/11,04:10,0.304,0.187,0.299,0.286,0.276,0.152,0.092,��,5.5,��
2018/11/11,04:20,0.305,0.187,0.300,0.290,0.277,0.150,0.093,��,5.1,��
2018/11/11,04:30,0.303,0.188,0.298,0.287,0.276,0.150,0.092,��,5.9,��
2018/11/11,04:40,0.305,0.188,0.301,0.286,0.279,0.150,0.092,��,6.4,��
2018/11/11,04:50,0.305,0.187,0.300,0.288,0.277,0.150,0.093,��,5.6,��
2018/11/11,05:00,0.303,0.189,0.300,0.287,0.278,0.151,0.092,��,6.2,��
2018/11/11,05:10,0.306,0.188,0.300,0.287,0.278,0.151,0.093,���k��,4.6,��
2018/11/11,05:20,0.305,0.187,0.301,0.288,0.277,0.151,0.092,��,4.2,��
2018/11/11,05:30,0.304,0.187,0.298,0.287,0.277,0.150,0.092,��,4.3,��
2018/11/11,05:40,0.305,0.189,0.299,0.287,0.278,0.150,0.093,��,5.8,��
2018/11/11,05:50,0.304,0.188,0.301,0.288,0.277,0.149,0.092,��,4.6,��
2018/11/11,06:00,0.304,0.187,0.298,0.286,0.279,0.150,0.093,��,6.3,��
2018/11/11,06:10,0.305,0.187,0.301,0.288,0.277,0.150,0.092,��,5.8,��
2018/11/11,06:20,0.304,0.188,0.300,0.289,0.277,0.150,0.093,��,6.1,��
2018/11/11,06:30,0.304,0.188,0.300,0.287,0.278,0.150,0.091,���k��,6.0,��
2018/11/11,06:40,0.306,0.188,0.300,0.286,0.276,0.150,0.092,���k��,5.8,��
2018/11/11,06:50,0.305,0.187,0.299,0.289,0.279,0.150,0.093,���k��,4.5,��
2018/11/11,07:00,0.304,0.189,0.299,0.286,0.277,0.151,0.091,�k��,3.7,��
2018/11/11,07:10,0.305,0.188,0.301,0.287,0.278,0.151,0.092,���k��,3.2,��
2018/11/11,07:20,0.304,0.188,0.300,0.287,0.277,0.151,0.093,�k��,3.2,��
2018/11/11,07:30,0.305,0.187,0.300,0.286,0.276,0.151,0.093,���k��,2.3,��
2018/11/11,07:40,0.306,0.187,0.302,0.288,0.278,0.150,0.092,�k��,1.8,��
2018/11/11,07:50,0.304,0.189,0.299,0.286,0.277,0.150,0.092,���k��,2.0,��
2018/11/11,08:00,0.305,0.187,0.300,0.287,0.278,0.151,0.092,���k��,1.9,��
2018/11/11,08:10,0.303,0.188,0.300,0.285,0.277,0.151,0.093,���k��,2.0,��
2018/11/11,08:20,0.306,0.187,0.300,0.287,0.277,0.149,0.093,�k��,2.0,��
2018/11/11,08:30,0.305,0.187,0.300,0.286,0.278,0.150,0.092,���k��,1.9,��
2018/11/11,08:40,0.305,0.187,0.299,0.286,0.277,0.149,0.093,�k��,1.9,��
2018/11/11,08:50,0.306,0.188,0.301,0.285,0.277,0.151,0.092,�k�k��,2.3,��
2018/11/11,09:00,0.305,0.187,0.300,0.287,0.277,0.150,0.093,�k��,1.8,��
2018/11/11,09:10,0.305,0.187,0.300,0.284,0.280,0.150,0.092,�k�k��,1.4,��
2018/11/11,09:20,0.305,0.187,0.301,0.285,0.277,0.151,0.092,�k��,1.5,��
2018/11/11,09:30,0.305,0.186,0.299,0.287,0.277,0.150,0.092,�k��,0.9,��
2018/11/11,09:40,0.302,0.187,0.300,0.286,0.277,0.150,0.093,��,1.1,��
2018/11/11,09:50,0.305,0.187,0.299,0.285,0.274,0.151,0.090,�k��,0.7,��
2018/11/11,10:00,0.302,0.187,0.299,0.289,0.279,0.150,0.092,���k��,1.9,��
2018/11/11,10:10,0.300,0.187,0.300,0.287,0.275,0.150,0.093,�k��,1.5,��
2018/11/11,10:20,0.305,0.185,0.298,0.284,0.273,0.150,0.092,��,1.2,��
2018/11/11,10:30,0.304,0.187,0.301,0.287,0.278,0.151,0.093,��,0.6,��
2018/11/11,10:40,0.302,0.187,0.301,0.288,0.279,0.150,0.093,-,CALM,��
2018/11/11,10:50,0.303,0.186,0.300,0.286,0.276,0.151,0.092,�k��,3.2,��
2018/11/11,11:00,0.305,0.186,0.300,0.284,0.274,0.150,0.092,���k��,5.3,��
2018/11/11,11:10,0.303,0.188,0.298,0.288,0.280,0.150,0.093,���k��,6.0,��
2018/11/11,11:20,0.303,0.188,0.300,0.288,0.278,0.151,0.092,��,7.0,��
2018/11/11,11:30,0.305,0.186,0.299,0.287,0.276,0.151,0.092,���k��,5.7,��
2018/11/11,11:40,0.304,0.188,0.300,0.285,0.278,0.151,0.092,���k��,6.4,��
2018/11/11,11:50,0.304,0.188,0.299,0.289,0.276,0.150,0.092,�k��,6.7,��
2018/11/11,12:00,0.306,0.187,0.301,0.288,0.275,0.150,0.093,���k��,7.2,��
2018/11/11,12:10,0.303,0.188,0.299,0.286,0.276,0.151,0.093,���k��,5.2,��
2018/11/11,12:20,0.305,0.189,0.300,0.286,0.279,0.152,0.093,�k��,6.8,��
2018/11/11,12:30,0.306,0.187,0.299,0.289,0.276,0.151,0.092,���k��,6.5,��
2018/11/11,12:40,0.305,0.188,0.300,0.289,0.276,0.151,0.092,�k��,5.9,��
2018/11/11,12:50,0.306,0.186,0.300,0.286,0.278,0.150,0.093,��,4.9,��
2018/11/11,13:00,0.305,0.189,0.300,0.287,0.277,0.151,0.092,���k��,4.6,��
2018/11/11,13:10,0.305,0.188,0.300,0.290,0.279,0.150,0.092,���k��,3.9,��
2018/11/11,13:20,0.307,0.188,0.299,0.288,0.279,0.151,0.093,���k��,3.8,��
2018/11/11,13:30,0.304,0.187,0.300,0.287,0.277,0.152,0.093,�k��,7.2,��
2018/11/11,13:40,0.307,0.187,0.301,0.287,0.276,0.151,0.092,�k��,6.3,��
2018/11/11,13:50,0.306,0.187,0.300,0.289,0.279,0.151,0.093,�k��,5.7,��
2018/11/11,14:00,0.306,0.187,0.300,0.288,0.277,0.153,0.093,�k��,4.0,��
2018/11/11,14:10,0.306,0.186,0.300,0.289,0.279,0.150,0.093,�k��,5.2,��
2018/11/11,14:20,0.306,0.188,0.302,0.290,0.278,0.151,0.093,�k�k��,5.0,��
2018/11/11,14:30,0.307,0.186,0.302,0.288,0.279,0.152,0.093,�k��,6.6,��
2018/11/11,14:40,0.307,0.189,0.302,0.291,0.279,0.152,0.092,�k��,6.0,��
2018/11/11,14:50,0.306,0.188,0.302,0.289,0.280,0.151,0.093,���k��,8.2,��
2018/11/11,15:00,0.307,0.188,0.302,0.291,0.279,0.152,0.093,���k��,5.0,��
2018/11/11,15:10,0.307,0.188,0.301,0.289,0.279,0.151,0.092,���k��,3.5,��
2018/11/11,15:20,0.307,0.190,0.301,0.291,0.280,0.151,0.093,���k��,4.3,��
2018/11/11,15:30,0.306,0.187,0.302,0.288,0.280,0.152,0.093,�k��,3.0,��
2018/11/11,15:40,0.308,0.189,0.301,0.291,0.279,0.151,0.093,�k��,3.0,��
2018/11/11,15:50,0.306,0.189,0.304,0.290,0.279,0.151,0.093,���k��,2.9,��
2018/11/11,16:00,0.307,0.189,0.301,0.291,0.279,0.152,0.092,�k�k��,3.0,��
2018/11/11,16:10,0.306,0.188,0.301,0.289,0.280,0.151,0.093,�k��,2.7,��
2018/11/11,16:20,0.308,0.189,0.300,0.291,0.278,0.152,0.093,�k��,2.3,��
2018/11/11,16:30,0.306,0.189,0.302,0.291,0.280,0.152,0.094,���k��,1.0,��
2018/11/11,16:40,0.307,0.189,0.300,0.290,0.279,0.151,0.093,���k��,3.1,��
2018/11/11,16:50,0.306,0.190,0.302,0.290,0.280,0.152,0.093,���k��,4.1,��
2018/11/11,17:00,0.306,0.188,0.302,0.289,0.278,0.152,0.093,�k��,3.4,��
2018/11/11,17:10,0.309,0.189,0.302,0.292,0.279,0.151,0.093,�k��,2.7,��
2018/11/11,17:20,0.307,0.188,0.302,0.289,0.279,0.152,0.093,���k��,2.2,��
2018/11/11,17:30,0.308,0.189,0.301,0.290,0.278,0.152,0.093,��,1.8,��
2018/11/11,17:40,0.306,0.188,0.303,0.291,0.281,0.152,0.093,���k��,1.8,��
2018/11/11,17:50,0.306,0.190,0.302,0.290,0.278,0.153,0.092,��,1.1,��
2018/11/11,18:00,0.307,0.189,0.302,0.290,0.279,0.152,0.093,���k��,0.8,��
2018/11/11,18:10,0.307,0.188,0.302,0.291,0.280,0.152,0.092,�k��,1.5,��
2018/11/11,18:20,0.307,0.188,0.303,0.289,0.278,0.153,0.093,�k��,2.5,��
2018/11/11,18:30,0.305,0.189,0.303,0.290,0.281,0.152,0.093,�k��,2.5,��
2018/11/11,18:40,0.307,0.188,0.301,0.290,0.278,0.152,0.094,�k��,1.8,��
2018/11/11,18:50,0.308,0.190,0.302,0.291,0.278,0.153,0.093,���k��,1.6,��
2018/11/11,19:00,0.306,0.189,0.302,0.291,0.280,0.152,0.094,�k��,2.0,��
2018/11/11,19:10,0.306,0.189,0.302,0.291,0.277,0.153,0.093,�k��,1.8,��
2018/11/11,19:20,0.308,0.189,0.301,0.289,0.279,0.151,0.093,�k��,2.0,��
2018/11/11,19:30,0.307,0.188,0.303,0.291,0.278,0.152,0.093,�k��,2.1,��
2018/11/11,19:40,0.308,0.190,0.302,0.289,0.279,0.152,0.093,�k�k��,2.6,��
2018/11/11,19:50,0.305,0.189,0.303,0.291,0.279,0.152,0.092,�k�k��,3.1,��
2018/11/11,20:00,0.305,0.189,0.303,0.292,0.276,0.152,0.093,�k�k��,2.4,��
2018/11/11,20:10,0.308,0.190,0.302,0.289,0.280,0.152,0.093,�k�k��,2.4,��
2018/11/11,20:20,0.307,0.189,0.303,0.291,0.279,0.152,0.093,�k�k��,2.3,��
2018/11/11,20:30,0.308,0.190,0.302,0.291,0.279,0.152,0.093,�k�k��,1.7,��
2018/11/11,20:40,0.306,0.189,0.301,0.289,0.280,0.151,0.093,�k,1.6,��
2018/11/11,20:50,0.307,0.189,0.303,0.291,0.278,0.152,0.093,�k,0.9,��
2018/11/11,21:00,0.308,0.189,0.302,0.289,0.280,0.153,0.094,�k�k��,1.2,��
2018/11/11,21:10,0.307,0.189,0.303,0.291,0.279,0.152,0.094,�k,1.4,��
2018/11/11,21:20,0.307,0.190,0.303,0.291,0.280,0.152,0.094,�k�k��,1.2,��
2018/11/11,21:30,0.307,0.190,0.302,0.291,0.280,0.153,0.094,�k,0.9,��
2018/11/11,21:40,0.306,0.188,0.303,0.291,0.279,0.152,0.094,�k,1.1,��
2018/11/11,21:50,0.308,0.189,0.304,0.292,0.281,0.153,0.093,�k�k��,1.1,��
2018/11/11,22:00,0.308,0.189,0.302,0.290,0.280,0.152,0.093,�k�k��,0.6,��
2018/11/11,22:10,0.307,0.188,0.303,0.290,0.279,0.153,0.093,-,CALM,��
2018/11/11,22:20,0.308,0.189,0.304,0.291,0.280,0.153,0.093,�k�k��,0.9,��
2018/11/11,22:30,0.309,0.189,0.302,0.291,0.279,0.152,0.094,�k�k��,1.4,��
2018/11/11,22:40,0.308,0.189,0.303,0.291,0.280,0.153,0.094,�k��,1.2,��
2018/11/11,22:50,0.309,0.190,0.303,0.290,0.278,0.152,0.093,-,CALM,��
2018/11/11,23:00,0.308,0.188,0.301,0.291,0.279,0.152,0.093,-,CALM,��
2018/11/11,23:10,0.308,0.189,0.302,0.291,0.279,0.152,0.094,-,CALM,��
2018/11/11,23:20,0.308,0.189,0.302,0.290,0.278,0.153,0.093,�k,0.6,��
2018/11/11,23:30,0.307,0.188,0.301,0.290,0.279,0.152,0.093,�k�k��,0.6,��
2018/11/11,23:40,0.310,0.189,0.303,0.291,0.278,0.152,0.094,�k,0.8,��
2018/11/11,23:50,0.307,0.189,0.303,0.290,0.278,0.152,0.093,�k,1.3,��
